Meath Environmental Platform

Observations for Trim Patrick St

Time AQI Temp °C Hum % Pres Pa CO μg/m³ H₂S μg/m³ NO μg/m³ NO₂ μg/m³ O₃ μg/m³ SO₂ μg/m³ PM1 μg/m³ PM2.5 μg/m³ PM10 μg/m³
Thursday 27 August 2026
08:03 2 18.1 85 38,460 0.16 0 1.34 19.2 25.64 0 23.43 35.2 36.96
08:02 2 18.1 85 38,460 0.15 0 1.04 11.88 34.88 0 22.57 34.51 36.31
08:01 2 18.1 85 38,460 0.16 0 1.01 12.92 34.45 0 21.72 33.84 35.03
08:00 2 18.1 85 38,460 0.17 0.32 0.78 22.8 36.84 0 26 36.63 39.7
07:59 2 18.1 85 38,460 0.16 0 0.86 21.17 30.93 0 26 35.89 38.27
07:58 2 18 85 38,460 0.17 0 0.76 14.25 30.53 0 24.29 33.82 36.31
07:57 2 18 85 38,460 0.17 0 1.08 15.98 25.8 0 25.14 34.51 38.92
07:56 2 18 85 38,460 0.17 0 1.17 12.38 37.12 0 25.14 34.51 37.61
07:55 2 18 85 38,460 0.17 0 1.48 14.28 28.91 0 25.14 35.19 37.57
07:53 2 18 85 38,460 0.2 0 1.48 13.3 34.28 0 25.14 35.17 38.19
07:52 2 18 85 38,460 0.21 0.22 1.19 19.68 27.62 0 25.14 35.17 37.53
07:51 2 18 85 38,460 0.19 0 1.29 19.68 33.57 0 25.14 35.17 37.53
07:49 2 18 86 38,460 0.17 0 1.29 13.33 28.35 0 26 34.45 35.5
07:47 2 18 86 38,460 0.19 0.19 1.6 21.19 28 0 25.14 35.14 37.45
07:46 2 18 86 38,460 0.21 0 1.63 22.61 26.13 0 26 35.83 38.1
07:43 2 18 86 38,460 0.18 0 1.18 17.91 33.9 0 26 35.15 38.8
07:42 2 17.9 85 38,460 0.17 0 1.23 12.67 30.29 0 25.14 33.79 34.92
07:41 2 17.9 85 38,460 0.19 0.59 1.08 24.29 36.13 0 26.86 35.95 39.09
07:40 2 17.9 86 38,459 0.21 0 1.4 14.48 29.95 0 25.14 35.12 37.41
07:38 2 17.9 86 38,459 0.18 0.67 1.14 33.79 27.25 0 26 36.5 38.06